When you browse on this site, cookies collect data to enhance your experience and personalize the content and advertising you see.
Visit our Privacy Policy to learn more. By continuing to use the site, you agree to this use of cookies and data.
  • In United Kingdom
  • List of Countries
  • For 7 days
  • Water Temperature
  • Weather Map
  • Weather Widgets
  • user-avatar
    Login

    Hourly Weather Chachapoyas

    Today, 15 October, Tuesday

    Time Temperature Precipitation Wind Pressure Humidity
    00:00 +12°C° 0.1 mm 1 mps 572 mmHg 95%
    01:00 +10°C° 0.1 mm 0 mps 571 mmHg 94%
    02:00 +10°C° 0 mm 0 mps 571 mmHg 94%
    03:00 +10°C° 0 mm 0 mps 571 mmHg 94%
    04:00 +11°C° 0 mm 1 mps 571 mmHg 94%
    05:00 +12°C° 0 mm 1 mps 571 mmHg 92%
    06:00 +12°C° 0 mm 1 mps 572 mmHg 91%
    07:00 +13°C° 0 mm 1 mps 573 mmHg 90%
    08:00 +16°C° 0.1 mm 1 mps 574 mmHg 79%
    09:00 +19°C° 0.1 mm 1 mps 576 mmHg 68%
    10:00 +22°C° 0.1 mm 1 mps 577 mmHg 57%
    11:00 +21°C° 0.7 mm 1 mps 576 mmHg 63%
    12:00 +20°C° 0.7 mm 2 mps 575 mmHg 70%
    13:00 +19°C° 0.7 mm 2 mps 574 mmHg 76%
    14:00 +18°C° 1.3 mm 2 mps 573 mmHg 79%
    15:00 +18°C° 1.3 mm 2 mps 573 mmHg 82%
    16:00 +19°C° 1.3 mm 1 mps 572 mmHg 85%
    17:00 +16°C° 0.6 mm 1 mps 572 mmHg 88%
    18:00 +15°C° 0.6 mm 1 mps 572 mmHg 92%
    19:00 +13°C° 0.6 mm 1 mps 571 mmHg 95%
    20:00 +13°C° 0 mm 1 mps 571 mmHg 96%
    21:00 +12°C° 0 mm 1 mps 572 mmHg 96%
    22:00 +12°C° 0 mm 1 mps 572 mmHg 96%
    23:00 +12°C° 0 mm 1 mps 572 mmHg 96%

    Tomorrow, 16 October, Wednesday

    Time Temperature Precipitation Wind Pressure Humidity
    00:00 +12°C° 0 mm 1 mps 571 mmHg 96%
    01:00 +11°C° 0 mm 1 mps 571 mmHg 96%
    02:00 +11°C° 0 mm 1 mps 571 mmHg 96%
    03:00 +11°C° 0 mm 1 mps 571 mmHg 95%
    04:00 +11°C° 0 mm 1 mps 571 mmHg 95%
    05:00 +12°C° 0 mm 1 mps 572 mmHg 93%
    06:00 +13°C° 0 mm 1 mps 572 mmHg 92%
    07:00 +13°C° 0 mm 0 mps 573 mmHg 90%
    08:00 +15°C° 0.3 mm 1 mps 574 mmHg 84%
    09:00 +18°C° 0.3 mm 1 mps 575 mmHg 78%
    10:00 +20°C° 0.3 mm 1 mps 576 mmHg 72%
    11:00 +20°C° 0.9 mm 1 mps 575 mmHg 74%
    12:00 +20°C° 0.9 mm 1 mps 575 mmHg 76%
    13:00 +20°C° 0.9 mm 1 mps 574 mmHg 77%
    14:00 +19°C° 0.9 mm 1 mps 573 mmHg 80%
    15:00 +19°C° 0.9 mm 1 mps 573 mmHg 82%
    16:00 +19°C° 0.9 mm 1 mps 572 mmHg 85%
    17:00 +16°C° 0.5 mm 1 mps 572 mmHg 88%
    18:00 +15°C° 0.5 mm 1 mps 571 mmHg 92%
    19:00 +12°C° 0.5 mm 0 mps 571 mmHg 96%
    20:00 +12°C° 0 mm 0 mps 571 mmHg 96%
    21:00 +12°C° 0 mm 0 mps 572 mmHg 96%
    22:00 +11°C° 0 mm 0 mps 572 mmHg 96%
    23:00 +11°C° 0 mm 0 mps 572 mmHg 95%

    Day after tomorrow, 17 October, Thursday

    Time Temperature Precipitation Wind Pressure Humidity
    00:00 +11°C° 0 mm 0 mps 572 mmHg 95%
    01:00 +11°C° 0 mm 0 mps 572 mmHg 95%
    02:00 +11°C° 0 mm 0 mps 572 mmHg 95%
    03:00 +11°C° 0 mm 0 mps 571 mmHg 95%
    04:00 +11°C° 0 mm 0 mps 571 mmHg 95%
    05:00 +12°C° 0.1 mm 0 mps 572 mmHg 95%
    06:00 +12°C° 0.1 mm 0 mps 573 mmHg 94%
    07:00 +13°C° 0.1 mm 0 mps 573 mmHg 93%
    08:00 +13°C° 0.6 mm 0 mps 574 mmHg 92%
    09:00 +15°C° 0.6 mm 1 mps 574 mmHg 91%
    10:00 +16°C° 0.6 mm 1 mps 575 mmHg 90%
    11:00 +16°C° 0.7 mm 1 mps 574 mmHg 91%
    12:00 +15°C° 0.7 mm 1 mps 574 mmHg 92%
    13:00 +14°C° 0.7 mm 0 mps 573 mmHg 93%
    14:00 +14°C° 0.6 mm 0 mps 573 mmHg 92%
    15:00 +15°C° 0.6 mm 0 mps 572 mmHg 91%
    16:00 +15°C° 0.6 mm 0 mps 572 mmHg 90%
    17:00 +14°C° 0.2 mm 0 mps 572 mmHg 92%
    18:00 +13°C° 0.2 mm 0 mps 572 mmHg 95%
    19:00 +12°C° 0.2 mm 0 mps 571 mmHg 97%
    20:00 +12°C° 0 mm 0 mps 572 mmHg 96%
    21:00 +11°C° 0 mm 0 mps 572 mmHg 96%
    22:00 +12°C° 0 mm 1 mps 572 mmHg 96%
    23:00 +11°C° 0 mm 0 mps 572 mmHg 95%

    18 October, Friday

    Time Temperature Precipitation Wind Pressure Humidity
    00:00 +11°C° 0 mm 0 mps 571 mmHg 94%
    01:00 +11°C° 0 mm 0 mps 571 mmHg 93%
    02:00 +11°C° 0 mm 0 mps 571 mmHg 93%
    03:00 +11°C° 0 mm 0 mps 571 mmHg 92%
    04:00 +11°C° 0 mm 0 mps 571 mmHg 92%
    05:00 +12°C° 0.1 mm 0 mps 572 mmHg 91%
    06:00 +12°C° 0.1 mm 0 mps 572 mmHg 91%
    07:00 +13°C° 0.1 mm 0 mps 573 mmHg 90%
    08:00 +14°C° 0.4 mm 0 mps 573 mmHg 88%
    09:00 +16°C° 0.4 mm 1 mps 574 mmHg 86%
    10:00 +16°C° 0.4 mm 1 mps 574 mmHg 83%
    11:00 +19°C° 0.5 mm 1 mps 574 mmHg 78%
    12:00 +20°C° 0.5 mm 1 mps 574 mmHg 72%
    13:00 +22°C° 0.5 mm 1 mps 574 mmHg 66%
    14:00 +21°C° 1.3 mm 1 mps 573 mmHg 72%
    15:00 +20°C° 1.3 mm 1 mps 572 mmHg 78%
    16:00 +19°C° 1.3 mm 1 mps 572 mmHg 84%
    17:00 +18°C° 1 mm 1 mps 571 mmHg 88%
    18:00 +15°C° 1 mm 1 mps 571 mmHg 92%
    19:00 +13°C° 1 mm 0 mps 571 mmHg 96%
    20:00 +13°C° 0.2 mm 0 mps 571 mmHg 96%
    21:00 +12°C° 0.2 mm 0 mps 571 mmHg 96%
    22:00 +12°C° 0.2 mm 0 mps 572 mmHg 96%
    23:00 +12°C° 0 mm 0 mps 571 mmHg 96%

    19 October, Saturday

    Time Temperature Precipitation Wind Pressure Humidity
    00:00 +11°C° 0 mm 0 mps 571 mmHg 96%
    01:00 +11°C° 0 mm 0 mps 571 mmHg 96%
    02:00 +11°C° 0 mm 0 mps 571 mmHg 96%
    03:00 +11°C° 0 mm 0 mps 571 mmHg 96%
    04:00 +11°C° 0 mm 0 mps 570 mmHg 96%
    05:00 +12°C° 0.1 mm 0 mps 571 mmHg 95%
    06:00 +12°C° 0.1 mm 0 mps 572 mmHg 94%
    07:00 +13°C° 0.1 mm 0 mps 573 mmHg 93%
    08:00 +14°C° 0.5 mm 0 mps 574 mmHg 89%
    09:00 +16°C° 0.5 mm 1 mps 574 mmHg 86%
    10:00 +19°C° 0.5 mm 1 mps 575 mmHg 83%
    11:00 +19°C° 1.2 mm 1 mps 575 mmHg 85%
    12:00 +18°C° 1.2 mm 1 mps 574 mmHg 86%
    13:00 +18°C° 1.2 mm 1 mps 573 mmHg 88%
    14:00 +18°C° 1.2 mm 1 mps 573 mmHg 91%
    15:00 +16°C° 1.2 mm 1 mps 572 mmHg 94%
    16:00 +15°C° 1.2 mm 1 mps 571 mmHg 96%
    17:00 +14°C° 1.6 mm 0 mps 571 mmHg 97%
    18:00 +13°C° 1.6 mm 0 mps 572 mmHg 97%
    19:00 +13°C° 1.6 mm 0 mps 572 mmHg 98%
    20:00 +13°C° 0.9 mm 0 mps 572 mmHg 97%
    21:00 +13°C° 0.9 mm 0 mps 572 mmHg 97%
    22:00 +12°C° 0.9 mm 0 mps 573 mmHg 97%
    23:00 +12°C° 0.2 mm 0 mps 572 mmHg 96%

    20 October, Sunday

    Time Temperature Precipitation Wind Pressure Humidity
    00:00 +12°C° 0.2 mm 0 mps 572 mmHg 96%
    01:00 +12°C° 0.2 mm 0 mps 572 mmHg 96%
    02:00 +12°C° 0.1 mm 0 mps 572 mmHg 96%
    03:00 +12°C° 0.1 mm 0 mps 571 mmHg 95%
    04:00 +12°C° 0.1 mm 0 mps 571 mmHg 95%
    05:00 +12°C° 0.1 mm 0 mps 571 mmHg 95%
    06:00 +12°C° 0.1 mm 0 mps 572 mmHg 94%
    07:00 +12°C° 0.1 mm 0 mps 573 mmHg 94%
    08:00 +13°C° 0.4 mm 0 mps 573 mmHg 93%
    09:00 +14°C° 0.4 mm 1 mps 573 mmHg 93%
    10:00 +15°C° 0.4 mm 1 mps 573 mmHg 93%
    11:00 +16°C° 0.5 mm 1 mps 573 mmHg 90%
    12:00 +16°C° 0.5 mm 1 mps 573 mmHg 87%
    13:00 +18°C° 0.5 mm 1 mps 573 mmHg 85%
    14:00 +18°C° 0.8 mm 1 mps 573 mmHg 85%
    15:00 +18°C° 0.8 mm 1 mps 572 mmHg 86%
    16:00 +18°C° 0.8 mm 1 mps 572 mmHg 87%
    17:00 +16°C° 1.2 mm 1 mps 572 mmHg 90%
    18:00 +14°C° 1.2 mm 0 mps 572 mmHg 94%
    19:00 +13°C° 1.2 mm 0 mps 572 mmHg 98%
    20:00 +13°C° 0.4 mm 0 mps 572 mmHg 97%
    21:00 +13°C° 0.4 mm 0 mps 572 mmHg 97%
    22:00 +13°C° 0.4 mm 0 mps 573 mmHg 97%
    23:00 +12°C° 0 mm 0 mps 572 mmHg 97%
    Show more